Lancaster, PA

9:28 AM EDT on April 26, 2017 (GMT -0400)
Lancaster

Weather History for KLNS - June, 2014

Change the Weather History Date:

Saturday, June 7, 2014

  Actual Average Record
Temperature  
Mean Temperature 67 °F -  
Max Temperature 82 °F 77 °F 93 °F (1999)
Min Temperature 53 °F 56 °F 47 °F (1985)
Cooling Degree Days 2    
Growing Degree Days 17 (Base 50)    
Moisture  
Dew Point 52 °F    
Average Humidity 57    
Maximum Humidity 90    
Minimum Humidity 31    
Precipitation  
Precipitation 0.00 in - - ()
Sea Level Pressure  
Sea Level Pressure 29.99 in    
Wind  
Wind Speed 4 mph (NW)    
Max Wind Speed 10 mph    
Max Gust Speed -    
Visibility 10 miles    
Events      
Averages and records for this station are not official NWS values.
T = Trace of Precipitation, MM = Missing Value Source: NWS Daily Summary

Daily Weather History Graph

Daily Weather History Graph

Search for Another Location

Airport or City:

Trip Planner

Search our weather history database for the weather conditions in past years. The results will help you decide how hot, cold, wet, or windy it might be!

Date:

Astronomy

Jun. 07, 2014 Rise Set
Actual Time 5:36 AM EDT 8:32 PM EDT
Civil Twilight 5:03 AM EDT 9:04 PM EDT
Nautical Twilight 4:22 AM EDT 9:46 PM EDT
Astronomical Twilight 3:34 AM EDT 10:34 PM EDT
Moon 2:47 PM EDT (6/7) 1:56 AM EDT (6/7)
Length of Visible Light 16h 01m
Length of Day
14h 56m
Waxing Gibbous, 67% of the Moon is Illuminated
Jun 7
Waxing Gibbous
Jun 13
Full
Jun 19
Last Quarter
Jun 27
New
Jul 5
First Quarter

Hourly Weather History & Observations

Time (EDT) Temp. Dew Point Humidity Pressure Visibility Wind Dir Wind Speed Gust Speed Precip Events Conditions
12:53 AM 59.0 °F 52.0 °F 78% 30.00 in 10.0 mi Calm Calm - N/A   Clear
1:53 AM 57.9 °F 52.0 °F 81% 29.99 in 10.0 mi Calm Calm - N/A   Clear
2:53 AM 55.9 °F 51.1 °F 84% 29.99 in 10.0 mi West 3.5 mph - N/A   Clear
4:53 AM 54.0 °F 51.1 °F 90% 30.00 in 10.0 mi West 3.5 mph - N/A   Clear
5:53 AM 53.1 °F 50.0 °F 89% 30.00 in 10.0 mi West 4.6 mph - N/A   Clear
6:53 AM 57.0 °F 53.1 °F 87% 30.02 in 10.0 mi Calm Calm - N/A   Clear
9:53 AM 73.0 °F 54.0 °F 51% 30.05 in 10.0 mi North 5.8 mph - N/A   Clear
10:53 AM 73.9 °F 53.1 °F 48% 30.05 in 10.0 mi ENE 5.8 mph - N/A   Clear
11:53 AM 75.0 °F 52.0 °F 44% 30.05 in 10.0 mi NNE 8.1 mph - N/A   Partly Cloudy
12:53 PM 78.1 °F 53.1 °F 42% 30.03 in 10.0 mi WNW 9.2 mph - N/A   Partly Cloudy
1:53 PM 79.0 °F 52.0 °F 39% 30.01 in 10.0 mi North 10.4 mph - N/A   Clear
2:53 PM 78.1 °F 51.1 °F 39% 29.98 in 10.0 mi Variable 4.6 mph - N/A   Partly Cloudy
3:53 PM 81.0 °F 52.0 °F 36% 29.96 in 10.0 mi Variable 6.9 mph - N/A   Scattered Clouds
4:53 PM 80.1 °F 51.1 °F 36% 29.95 in 10.0 mi WNW 6.9 mph - N/A   Partly Cloudy
5:53 PM 81.0 °F 48.0 °F 31% 29.94 in 10.0 mi Calm Calm - N/A   Mostly Cloudy
6:53 PM 79.0 °F 50.0 °F 36% 29.94 in 10.0 mi West 4.6 mph - N/A   Clear
7:53 PM 75.9 °F 53.1 °F 45% 29.95 in 10.0 mi West 9.2 mph - N/A   Clear
8:53 PM 71.1 °F 52.0 °F 51% 29.96 in 10.0 mi NW 5.8 mph - N/A   Clear
9:53 PM 71.1 °F 52.0 °F 51% 29.96 in 10.0 mi West 4.6 mph - N/A   Clear
10:53 PM 69.1 °F 53.1 °F 57% 29.97 in 10.0 mi WSW 4.6 mph - N/A   Clear
11:53 PM 63.0 °F 55.0 °F 75% 29.96 in 10.0 mi East 3.5 mph - N/A   Clear